Location: Saluda
(35.2377°N, 82.3468°W)
Time: 14:00:38
(UTC+00:00)

SR - Pass Details

Date: 05 October 2022
Orbit: 577 x 875 km, 66.7° (Epoch: 28 November)

Event Time Altitude Azimuth Distance (km) Brightness Sun altitude
Rises 03:17:16 0° 261° (W) 3,444 ? -48.7°
Enters shadow 03:18:12 - 265° (W) 3,187 ? -48.8°
Reaches altitude 10° 03:21:15 10° 287° (WNW) 2,525 - -49.3°
Maximum altitude 03:23:58 13° 315° (NW) 2,299 - -49.7°
Drops below altitude 10° 03:26:41 10° 343° (NNW) 2,521 - -50.1°
Sets 03:30:40 0° 9° (N) 3,433 - -50.7°
